STARLINK-3234, 50815

Orbit data source: Space-Track

STARLINK-3234, 50815 is a payload satellite owned by SpaceX/Seattle (US) in LEO that was launched on Thu, 06 Jan 2022 UTC via an FALCON 9 launch vehicle from the Air Force Eastern Test Range (AFETR). Payload-class satellites include a variety of spacecraft equipped with specific instruments for various scientific and technological missions. These include communications satellites like Starlink; space stations such as the ISS; scientific satellites like the Hubble; Earth observation satellites from companies like Planet Labs, Umbra, and HawkEye 360; GPS; miniature CubeSats for education and research; and military/defense satellites.

Loading next visibility...
Identifier
50815, 2022-001N
Orbit
LEO
Country
Flag of USUS
Related business
Manufacturer
SpaceX/Seattle
Mission
Operational Commercial Communications
Bus & Motor
STARLINK, Unknown motor
Mass
297 kg wet, ~275 kg dry
Launch date (UTC)
2022-01-06 (4 years ago)
Launch vehicle
FALCON 9
Launch site
Air Force Eastern Test Range (AFETR)
Object type
Payload
Rocket body
Debris
Shape & HBR
Box + 1 Pan, 10.1 m
Radar Cross Section
13.562 m², Large (>1 m²)

Expand to show TLE details & history
Last TLE update: 3 days ago

TLE from 3 days ago
0 STARLINK-3234
1 50815U 22001N   26170.92587424 -.00000190  00000-0  61496-5 0  9993
2 50815  53.1608  70.0542 0001347  93.0469 267.0677 15.08835941245840
Epoch: 2026-06-19T22:13Z
TLE epoch observation values (Epoch: 2026-06-19T22:13:15.534Z)
Latitude
0.00002°
Longitude
-171.40836°
Altitude
540.695 km
Speed
7.593 km/s
True Right ascension
04h 40m 13s
True Declination
0° 00' 00"
Sunlit
Object was in daylight at epoch
Visualization orbit readout
Latitude
Unknown
Longitude
Unknown
Altitude
Unknown
Speed
Unknown
Apparent Right ascension
Unknown
Apparent Declination
Unknown
Sunlit
N/A
Visualization observer readout
Local Sidereal Time
21:24:59
Azimuth
Unknown
Elevation
Unknown
Doppler factor
Unknown
Orbital elements
Apogee altitude
540.942 km
Perigee altitude
539.078 km
Semi-major axis
6,918.147 km
Eccentricity
0.00013
Inclination
53.1608°
RAAN
70.0542°
Arg. of periapsis
93.0469°
True anomaly
267.05228°
Mean anomaly
267.0677°
Eccentric anomaly
267.05999°
Mean motion
3.77189 °/min
Orbital period
95.44 mins
BSTAR
0.0000061496
Loading maneuver chart data...
Computing Atmospheric mass density...
Loading historical data...
Loading historical data...
Loading historical data...
Loading historical data...
Loading historical data...
Loading historical data...
Loading historical data...

Documentation

Showing up to 5 results
|